Location: Владивосток
(43.1151°N, 131.8856°E)
Time: 02:09:43
(UTC+10:00)

FO-29 - Pass Details

Date: 29 April 2024
Orbit: 801 x 1320 km, 98.6° (Epoch: 19 May)

Event Time Altitude Azimuth Distance (km) Brightness Sun altitude
Rises 02:12:58 0° 19° (NNE) 4,264 14.0 -30.6°
Reaches altitude 10° 02:15:52 10° 27° (NNE) 3,325 13.2 -30.5°
Maximum altitude 02:23:10 41° 95° (E) 1,823 10.9 -30.0°
Enters shadow 02:25:35 34° 133° (SE) 2,042 10.9 -29.9°
